This is the latest recevied weather packets stored in our database for station/object KO5MO-10. If no packets are shown the sender has not sent any weather packets the latest 10 day(s).
| Time | Temp. | Humidity | Pressure | Rain* | Wind** | Luminosity | Snow |
|---|---|---|---|---|---|---|---|
| 1777600519 | 29.44° C | 14% | 1000.2 hPa | - | - | - | - |
| 1777599618 | 30° C | 14% | 1000.1 hPa | - | - | - | - |
| 1777598718 | 30° C | 15% | 1000.1 hPa | - | - | - | - |
| 1777597817 | 30.56° C | 13% | 1000.1 hPa | - | - | - | - |
| 1777596917 | 31.11° C | 14% | 1000.2 hPa | - | - | - | - |
| 1777596017 | 31.67° C | 13% | 1000.3 hPa | - | - | - | - |
| 1777595117 | 32.22° C | 12% | 1000.2 hPa | - | - | - | - |
| 1777594217 | 33.33° C | 12% | 1000.3 hPa | - | - | - | - |
| 1777593316 | 33.33° C | 11% | 999 hPa | - | - | - | - |
| 1777592416 | 34.44° C | 11% | 1000.3 hPa | - | - | - | - |
| 1777591516 | 36.11° C | 10% | 1000.5 hPa | - | - | - | - |
| 1777590616 | 37.78° C | 9% | 1000.8 hPa | - | - | - | - |
| 1777589715 | 37.22° C | 10% | 1000.8 hPa | - | - | - | - |
| 1777588815 | 37.22° C | 10% | 1001 hPa | - | - | - | - |
| 1777587915 | 37.78° C | 9% | 1001.3 hPa | - | - | - | - |
| 1777587015 | 36.67° C | 10% | 1001.5 hPa | - | - | - | - |
| 1777586114 | 36.67° C | 10% | 1001.9 hPa | - | - | - | - |
| 1777585214 | 37.22° C | 9% | 1002.1 hPa | - | - | - | - |
| 1777584314 | 36.67° C | 9% | 1002.3 hPa | - | - | - | - |
| 1777583414 | 36.67° C | 9% | 1002.5 hPa | - | - | - | - |
| 1777582514 | 36.67° C | 10% | 1002.8 hPa | - | - | - | - |
| 1777581614 | 37.22° C | 10% | 1003 hPa | - | - | - | - |
| 1777580713 | 37.22° C | 10% | 1003.2 hPa | - | - | - | - |
| 1777579813 | 36.67° C | 10% | 1003.4 hPa | - | - | - | - |
| 1777578913 | 36.11° C | 10% | 1003.6 hPa | - | - | - | - |
* Rain since midnight (hover to see other rain measurements)
** Current wind speed in m/s (hover to see current wind gust speed)